This is the latest recevied weather packets stored in our database for station/object K4TH. If no packets are shown the sender has not sent any weather packets the latest 1 day(s).
| Time | Temp. | Humidity | Pressure | Rain* | Wind** | Luminosity | Snow |
|---|---|---|---|---|---|---|---|
| 1777999399 | 24.44° C | 54% | 1014.8 hPa | 0 mm | 0.89 m/s, 209° | 36 W/m² | - |
| 1777999098 | 24.44° C | 52% | 1014.9 hPa | 0 mm | 2.24 m/s, 103° | 33 W/m² | - |
| 1777998796 | 25° C | 51% | 1015 hPa | 0 mm | 2.24 m/s, 196° | 31 W/m² | - |
| 1777998494 | 24.44° C | 52% | 1015.1 hPa | 0 mm | 0.89 m/s, 61° | 309 W/m² | - |
| 1777998190 | 24.44° C | 53% | 1014.8 hPa | 0 mm | 1.34 m/s, 215° | 31 W/m² | - |
| 1777997887 | 23.89° C | 52% | 1014.5 hPa | 0 mm | 1.34 m/s, 156° | 706 W/m² | - |
| 1777997584 | 23.89° C | 52% | 1014.6 hPa | 0 mm | 3.13 m/s, 171° | 646 W/m² | - |
| 1777997281 | 23.89° C | 51% | 1014.9 hPa | 0 mm | 0.89 m/s, 337° | 699 W/m² | - |
| 1777996979 | 24.44° C | 54% | 1014.7 hPa | 0 mm | 1.34 m/s, 204° | 683 W/m² | - |
| 1777996676 | 23.89° C | 58% | 1014.6 hPa | 0 mm | 0.89 m/s, 51° | 649 W/m² | - |
| 1777996371 | 23.89° C | 55% | 1014.9 hPa | 0 mm | 1.79 m/s, 172° | 649 W/m² | - |
| 1777996068 | 23.89° C | 59% | 1014.7 hPa | 0 mm | 0.89 m/s, 314° | 653 W/m² | - |
| 1777995765 | 23.89° C | 60% | 1015 hPa | 0 mm | 0.89 m/s, 77° | 651 W/m² | - |
| 1777995461 | 23.89° C | 60% | 1015.2 hPa | 0 mm | 2.24 m/s, 208° | 647 W/m² | - |
| 1777995158 | 23.33° C | 62% | 1015 hPa | 0 mm | 0.89 m/s, 209° | 629 W/m² | - |
| 1777994856 | 22.78° C | 65% | 1015.1 hPa | 0 mm | 1.79 m/s, 179° | 387 W/m² | - |
| 1777994552 | 22.22° C | 62% | 1014.8 hPa | 0 mm | 0.89 m/s, 340° | 46 W/m² | - |
| 1777994252 | 22.78° C | 61% | 1015 hPa | 0 mm | 1.79 m/s, 186° | 233 W/m² | - |
| 1777993949 | 22.78° C | 66% | 1014.9 hPa | 0 mm | 0.89 m/s, 231° | 42 W/m² | - |
| 1777993646 | 22.78° C | 62% | 1015.2 hPa | 0 mm | 1.34 m/s, 166° | 266 W/m² | - |
| 1777993343 | 22.22° C | 66% | 1015.3 hPa | 0 mm | 0 m/s | 184 W/m² | - |
| 1777993046 | 22.22° C | 66% | 1015.1 hPa | 0 mm | 1.79 m/s, 169° | 49 W/m² | - |
| 1777992737 | 21.67° C | 69% | 1015.2 hPa | 0 mm | 0 m/s | 167 W/m² | - |
| 1777992434 | 21.67° C | 68% | 1015.1 hPa | 0 mm | 0 m/s | 66 W/m² | - |
| 1777992132 | 21.67° C | 69% | 1015.1 hPa | 0 mm | 1.34 m/s, 166° | 37 W/m² | - |
* Rain latest hour (hover to see other rain measurements)
** Current wind speed in m/s (hover to see current wind gust speed)